Temp
82 79 76 81 83 81 77 77 77 78 78 78 77 78 75 76 77 77 77 74 73 74 73 72 74 74 78 75 75 75 73 74 72
76 78 77 78 75 74 77 77 79 77 77 79 79 79 76 75 77 76 76 75 75 76 76 76 73 73 76 80 77 76 75 74 73
71 73 73 72 73 72 73 75 75 81 80 79 79 78 76 76 77 77 78 75 75 75 76 75 74 73 73 74 75 75 74 74 74
70 70 71 72 73 73 74 75 75 79 81 80 78 79 76 75 74 75 77 75 77 77 76 75 75 74 73 74 73 74 74 74 74
69 72 72 72 73 71 72 71 71 73 78 80 80 78 78 79 76 73 74 77 79 77 76 76 78 76 75 74 74 74 74 72 74
66 68 67 66 67 67 70 70 71 69 72 74 78 79 79 78 77 77 77 77 77 81 78 77 76 76 76 75 75 74 75 74 73
66 66 66 64 64 66 68 72 70 73 77 77 75 82 80 78 78 78 78 79 79 79 78 78 78 78 78 75 75 75 75 74 73
69 66 66 65 64 65 67 70 71 72 70 75 76 81 80 79 79 79 79 78 78 78 78 78 78 77 75 76 76 77 73 75 75
69 69 69 69 68 68 69 70 70 73 71 73 76 77 78 77 77 77 78 78 78 77 77 77 77 77 77 75 79 74 72 75 75
71 70 70 69 69 70 71 73 73 71 71 72 73 75 76 76 74 76 79 80 79 77 76 76 76 77 76 75 76 71 71 73 76
70 71 71 71 70 72 73 73 72 73 73 71 72 72 75 77 77 76 74 76 78 78 78 77 77 77 77 76 76 70 70 72 76
69 70 71 71 73 73 73 74 73 73 70 70 70 70 70 72 73 74 75 75 75 74 77 77 77 78 76 75 76 68 68 69 74
72 73 73 74 73 72 71 72 72 73 69 68 68 69 70 70 70 71 71 73 75 76 76 77 75 78 77 74 77 66 66 68 75
71 72 73 74 73 73 73 71 71 69 68 69 69 69 69 70 70 69 70 72 73 74 76 77 76 76 75 77 75 71 63 63 74
69 70 70 72 71 72 72 71 72 69 68 70 68 67 68 68 68 70 71 70 70 73 75 75 75 73 70 68 69 64 61 60 62
66 68 70 71 70 69 69 69 70 69 70 69 68 66 66 66 67 68 69 68 69 70 73 74 71 68 65 65 66 67 63 61 61
64 66 66 68 69 67 68 69 70 71 71 69 66 65 65 64 64 65 66 66 66 66 69 70 67 66 66 66 67 68 67 67 67
62 65 67 66 66 68 69 70 69 70 69 67 66 64 64 64 63 64 66 65 60 61 65 64 68 67 67 68 68 70 64 63 67
62 63 64 63 65 66 69 71 69 70 67 65 64 63 63 62 62 64 66 64 62 53 52 51 51 54 63 66 60 55 55 53 52
61 62 62 62 63 65 66 68 70 70 67 64 64 62 62 61 60 62 64 63 62 62 58 50 48 52 52 51 55 51 50 48 49
MSLP
1004.18 1004.62 1005.40 1006.17 1007.14 1007.97 1008.95 1009.65 1009.71 1010.45 1011.07 1011.40 1011.74 1012.36 1012.86 1013.37 1014.08 1014.50 1015.01 1015.43 1015.87 1016.31 1016.58 1016.74 1016.59 1016.96 1017.07 1017.18 1017.32 1017.49 1017.74 1018.18 1018.39
1005.20 1005.72 1006.31 1007.22 1007.83 1008.37 1008.86 1009.16 1009.47 1010.12 1010.33 1010.46 1011.00 1012.08 1013.18 1013.44 1013.51 1013.94 1014.26 1014.74 1015.15 1015.54 1015.86 1016.22 1016.38 1016.45 1016.72 1016.44 1016.69 1016.91 1017.28 1017.68 1017.81
1006.42 1006.58 1007.27 1007.90 1008.20 1008.48 1008.66 1009.04 1009.26 1009.69 1010.08 1010.65 1011.59 1012.35 1013.31 1013.63 1013.49 1013.36 1013.60 1014.26 1014.69 1014.88 1015.15 1015.56 1015.79 1016.11 1016.26 1016.24 1016.30 1016.67 1016.87 1017.09 1017.17
1007.43 1007.70 1008.09 1008.35 1008.47 1008.48 1008.73 1009.06 1009.10 1009.07 1009.31 1010.08 1011.88 1011.50 1012.29 1012.63 1013.44 1012.92 1012.95 1013.47 1013.95 1014.35 1014.67 1014.91 1015.26 1015.42 1015.74 1015.82 1015.95 1016.27 1016.47 1016.55 1016.42
1008.06 1008.33 1008.71 1008.78 1008.63 1008.76 1009.17 1009.39 1009.57 1009.61 1009.53 1009.65 1010.69 1011.30 1011.48 1011.88 1012.58 1012.23 1012.51 1012.79 1013.17 1013.67 1014.13 1014.36 1014.54 1014.84 1015.09 1015.20 1015.38 1015.67 1015.86 1015.88 1015.85
1009.08 1009.04 1009.25 1009.38 1009.51 1009.61 1009.78 1010.11 1009.64 1010.12 1010.01 1010.50 1009.07 1009.95 1010.71 1010.79 1010.97 1011.23 1011.77 1012.20 1012.54 1012.87 1013.28 1013.70 1013.97 1014.15 1014.27 1014.45 1014.68 1014.89 1014.96 1015.02 1015.26
1009.39 1009.85 1010.33 1010.35 1010.21 1010.07 1009.56 1009.10 1008.74 1008.23 1007.59 1007.78 1008.73 1008.98 1009.39 1009.87 1010.16 1010.46 1011.03 1011.61 1011.99 1012.26 1012.47 1012.80 1013.17 1013.29 1013.47 1013.70 1013.91 1014.13 1014.28 1014.52 1014.77
1010.02 1010.13 1010.29 1010.37 1010.15 1009.92 1009.85 1009.27 1009.31 1009.49 1009.34 1009.01 1008.35 1008.24 1008.86 1009.17 1009.75 1010.15 1010.64 1011.07 1011.49 1011.79 1011.84 1011.90 1012.24 1012.50 1012.69 1012.92 1013.20 1013.43 1013.80 1013.83 1014.07
1009.43 1009.46 1009.53 1009.97 1010.27 1010.29 1009.85 1010.23 1010.07 1010.14 1009.73 1009.31 1008.59 1008.65 1009.35 1009.97 1010.20 1010.28 1010.33 1010.65 1010.72 1011.28 1011.28 1011.34 1011.42 1011.66 1011.94 1012.31 1012.54 1012.77 1013.04 1013.27 1013.58
1009.45 1009.13 1009.15 1009.73 1010.05 1009.80 1009.70 1009.49 1009.62 1010.23 1010.03 1009.66 1009.56 1009.58 1009.88 1010.08 1010.35 1010.34 1009.92 1009.86 1010.11 1010.34 1010.52 1010.78 1010.85 1010.92 1011.26 1011.54 1011.71 1011.96 1012.37 1012.68 1012.98
1009.90 1009.56 1009.16 1009.15 1009.43 1009.64 1009.50 1009.84 1009.98 1009.92 1009.87 1010.13 1010.42 1010.75 1010.68 1010.40 1010.07 1010.42 1009.69 1009.59 1009.82 1009.69 1009.78 1009.95 1010.08 1010.33 1010.42 1010.87 1011.17 1011.39 1011.76 1012.10 1012.47
1009.87 1009.94 1009.71 1009.61 1009.27 1009.38 1009.67 1009.70 1009.55 1010.36 1010.33 1010.06 1010.96 1011.03 1010.87 1010.84 1010.69 1010.44 1009.89 1009.60 1009.43 1009.08 1009.29 1009.25 1009.35 1009.42 1009.87 1010.23 1010.39 1010.66 1011.11 1011.63 1012.01
1010.11 1009.68 1009.44 1009.34 1009.44 1009.55 1009.55 1009.60 1009.38 1009.49 1010.02 1010.04 1010.28 1010.36 1010.14 1010.00 1009.99 1010.05 1010.07 1009.83 1009.59 1008.86 1008.53 1008.37 1008.62 1008.74 1008.96 1008.92 1009.06 1009.53 1010.11 1010.56 1010.97
1010.21 1010.05 1010.01 1009.68 1009.66 1009.60 1009.35 1009.14 1009.15 1009.56 1009.75 1009.89 1009.75 1009.88 1009.81 1009.53 1009.32 1009.26 1009.15 1009.03 1008.72 1008.35 1008.12 1007.92 1007.87 1008.23 1008.51 1008.68 1008.98 1009.41 1009.80 1010.31 1010.97
1010.41 1010.09 1009.83 1009.80 1009.76 1009.27 1009.02 1009.18 1009.17 1009.34 1009.26 1009.06 1009.31 1009.40 1009.43 1009.48 1009.30 1008.90 1008.81 1008.96 1008.66 1008.19 1008.03 1007.67 1007.61 1008.36 1008.92 1009.14 1009.43 1009.96 1010.80 1011.37 1011.36
1011.15 1010.63 1010.03 1009.59 1009.18 1009.10 1009.00 1008.91 1008.93 1009.11 1008.65 1008.80 1008.99 1009.12 1009.12 1009.16 1009.05 1008.98 1008.71 1008.67 1008.43 1008.27 1007.89 1007.63 1007.57 1008.22 1008.61 1009.13 1008.71 1009.39 1009.71 1011.20 1011.86
1011.40 1010.84 1010.53 1010.21 1009.77 1009.30 1008.80 1008.32 1008.27 1007.99 1008.08 1008.39 1008.60 1008.79 1008.82 1008.90 1008.95 1008.74 1008.52 1008.58 1008.69 1008.63 1008.16 1007.52 1007.68 1008.00 1008.28 1008.73 1008.72 1008.28 1008.89 1010.65 1009.85
1011.77 1011.12 1010.52 1010.16 1009.78 1009.43 1008.74 1007.90 1007.64 1007.31 1007.39 1007.64 1007.98 1008.14 1008.24 1008.35 1008.41 1008.39 1008.28 1008.31 1008.49 1008.49 1007.89 1007.62 1007.51 1007.16 1007.30 1007.58 1006.91 1006.65 1007.73 1009.18 1009.68
1011.43 1010.99 1010.47 1009.85 1009.38 1008.95 1008.20 1007.78 1007.22 1006.53 1006.53 1006.96 1007.40 1007.65 1007.58 1007.69 1007.85 1007.88 1007.86 1007.85 1008.03 1008.15 1007.81 1007.05 1006.96 1006.81 1006.22 1006.77 1006.74 1006.94 1007.01 1007.83 1008.92
1010.91 1010.43 1010.04 1009.54 1008.76 1008.07 1007.55 1006.95 1006.24 1005.82 1005.60 1005.95 1006.37 1006.60 1006.69 1006.85 1007.12 1007.12 1007.16 1007.38 1007.56 1007.47 1007.21 1007.01 1006.50 1006.55 1006.45 1006.43 1006.26 1006.48 1007.19 1008.40 1008.89
Wind_Speed
8 9 8 13 15 14 15 16 18 17 17 16 16 16 15 12 11 8 7 7 5 6 6 7 7 7 9 10 8 8 7 6 6
6 7 6 9 9 9 12 14 17 16 16 17 16 15 9 10 10 10 9 8 8 7 8 6 6 7 10 11 10 10 8 7 9
8 8 11 11 10 10 6 8 8 12 11 14 7 7 2 7 11 10 8 6 8 9 8 7 7 10 10 9 8 8 9 8 7
6 10 11 10 9 8 9 7 9 11 14 14 13 12 20 13 10 9 8 8 9 9 7 8 9 9 9 11 10 9 9 10 8
4 6 8 7 7 5 3 3 3 5 3 8 10 13 14 14 10 7 7 10 12 7 9 8 10 8 9 9 10 9 10 9 8
3 7 7 5 3 0 5 3 3 6 4 9 4 7 10 9 9 9 11 12 12 12 10 10 8 8 10 9 8 9 10 9 7
5 5 4 2 2 3 1 5 4 5 7 8 5 10 10 10 11 11 11 11 11 12 11 11 11 11 11 9 9 9 8 8 7
6 7 9 8 6 5 3 1 4 7 8 9 10 9 10 12 8 8 9 11 11 11 11 11 10 10 8 8 8 7 8 8 9
9 9 8 7 7 6 7 0 3 6 7 8 4 3 4 2 5 7 10 11 11 10 11 11 9 10 10 8 8 10 13 10 8
6 7 7 7 8 9 8 8 7 2 4 6 8 4 2 5 6 8 11 12 11 12 13 9 11 10 9 9 9 12 14 14 6
5 5 7 8 7 5 5 2 1 1 4 7 7 6 4 2 4 7 6 7 10 12 10 12 11 10 10 9 8 13 14 13 8
3 3 2 2 5 6 4 4 4 5 4 7 5 5 3 3 3 5 5 6 7 8 8 8 10 9 10 11 10 15 14 9 6
7 5 2 4 4 2 6 6 5 7 5 5 4 2 2 2 3 2 5 6 6 7 7 9 7 11 11 16 14 14 16 13 7
5 4 6 4 6 8 7 5 5 5 3 0 3 2 3 4 5 6 6 5 5 5 6 7 7 10 9 8 6 5 11 13 5
8 6 7 7 7 7 8 7 7 6 4 5 4 3 3 5 5 5 5 5 5 7 7 7 6 5 6 7 10 16 13 9 14
7 9 8 8 7 8 6 6 5 7 6 5 4 4 5 6 6 6 5 5 7 6 6 6 4 5 6 4 6 6 9 7 9
8 7 8 7 7 7 8 8 8 9 8 7 5 6 6 6 5 6 5 2 2 4 6 4 6 8 8 6 4 5 4 5 7
9 11 11 8 9 11 12 10 11 10 9 6 7 6 6 6 5 5 5 4 3 3 6 4 6 9 9 8 9 14 14 12 8
10 11 11 11 12 12 14 15 12 12 10 9 8 7 6 5 4 4 5 4 3 6 7 11 10 9 10 6 9 12 18 17 12
13 14 13 14 16 16 15 16 17 15 11 9 9 8 6 4 4 4 5 4 4 6 3 4 4 9 7 8 9 17 14 6 10
Wind_Direction
148 164 143 167 163 166 165 168 173 182 188 188 186 189 191 189 192 194 196 189 186 199 203 211 205 203 220 224 221 215 204 212 218
77 114 138 120 108 124 164 179 186 191 192 196 189 188 191 196 190 194 199 197 191 200 202 210 202 208 223 229 222 221 213 219 225
73 83 92 110 128 136 145 148 153 185 195 214 160 132 65 236 207 199 201 183 207 205 205 202 189 211 224 233 232 222 221 225 227
76 98 114 136 154 163 153 159 173 179 193 191 145 186 178 217 222 206 191 198 214 216 209 200 207 203 209 223 228 230 228 231 221
96 121 137 148 169 177 136 11 27 310 354 190 167 178 198 204 200 195 195 216 222 207 217 213 217 205 206 212 217 214 220 225 215
25 130 136 112 92 78 149 149 194 146 155 213 175 193 194 191 200 191 211 218 227 226 219 220 219 217 218 219 214 209 217 218 219
138 100 34 36 115 209 320 335 5 352 341 360 244 222 196 203 203 205 216 226 221 220 216 222 226 227 230 211 209 212 212 211 215
147 161 178 199 206 203 249 225 39 349 314 294 260 211 201 213 212 213 216 222 227 227 216 218 219 219 219 214 207 213 208 205 214
193 198 190 195 209 210 211 170 265 300 328 322 347 132 212 238 214 215 219 227 226 221 224 220 207 217 222 216 221 214 204 201 210
212 190 174 194 209 209 189 205 201 285 346 8 22 78 148 19 257 246 230 229 219 219 220 219 218 214 208 214 211 204 207 211 213
183 188 183 181 193 196 186 194 166 132 96 75 76 48 37 64 353 297 255 240 237 231 219 212 211 219 207 206 216 201 207 213 220
326 290 257 184 171 165 147 146 163 129 65 96 93 104 65 334 257 285 308 287 253 248 232 221 216 209 206 198 216 202 205 185 204
318 306 266 161 155 168 151 171 140 92 76 91 84 353 341 318 300 285 291 271 266 256 235 229 209 221 207 204 208 194 196 187 194
310 267 277 283 203 190 190 166 129 120 148 300 204 214 270 288 303 311 300 299 311 306 265 237 222 226 216 225 223 201 200 189 198
319 311 287 283 266 225 197 192 176 178 213 214 213 222 273 289 289 300 305 296 300 305 300 227 220 193 105 95 89 64 58 24 311
311 305 312 308 219 231 243 231 210 201 233 212 239 292 296 294 298 280 275 303 314 314 299 258 148 132 136 149 123 104 90 23 313
316 313 310 307 300 258 248 231 219 219 220 209 199 236 264 272 261 279 282 210 275 303 291 253 166 156 169 175 191 123 73 69 301
294 295 300 295 295 283 255 231 226 228 226 194 220 225 241 252 249 248 261 249 251 247 258 251 204 183 179 190 186 197 165 173 187
291 286 284 284 284 272 268 268 258 233 215 190 207 220 229 228 231 242 244 247 250 200 249 279 263 258 185 204 234 165 169 175 173
284 284 280 275 274 271 265 263 258 243 220 190 207 215 233 233 225 240 257 244 220 264 229 19 19 234 247 243 191 177 175 170 24